Location: Bodham
(52.9000°N, 1.1667°E)
Time: 15:09:53
(UTC+00:00)

Cosmos 2112 Rocket - Pass Details

Date: 22 October 2025
Orbit: 753 x 782 km, 74.0° (Epoch: 13 November)

Event Time Altitude Azimuth Distance (km) Brightness Sun altitude
Rises 05:34:45 0° 328° (NNW) 3,241 6.9 -9.6°
Reaches altitude 10° 05:37:24 10° 317° (NW) 2,306 6.0 -9.2°
Maximum altitude 05:41:49 29° 259° (W) 1,376 4.8 -8.6°
Drops below altitude 10° 05:46:12 10° 201° (SSW) 2,278 6.3 -7.9°
Sets 05:48:49 0° 190° (S) 3,196 7.2 -7.5°
